Satellite: HUBBLE
Catalog number: 20580
Epoch time:      10020.69635005
Element set:     507
Inclination:      028.4693 deg
RA of node:       122.6396 deg
Eccentricity:    0.0003374
Arg of perigee:   077.4179 deg
Mean anomaly:     282.6819 deg
Mean motion:   15.00880828 rev/day
Decay rate:       3.78e-06 rev/day^2
Epoch rev:           88256
Checksum:              309

Satellite: ISS
Catalog number: 25544
Epoch time:      10022.07754745
Element set:     419
Inclination:      051.6438 deg
RA of node:       261.0881 deg
Eccentricity:    0.0006748
Arg of perigee:   214.5181 deg
Mean anomaly:     293.0601 deg
Mean motion:   15.77653411 rev/day
Decay rate:     1.4048e-04 rev/day^2
Epoch rev:           64045
Checksum:              282

Satellite: CO-58
Catalog number: 28895
Epoch time:      10021.71687599
Element set:     493
Inclination:      098.0351 deg
RA of node:       270.8720 deg
Eccentricity:    0.0018266
Arg of perigee:   027.3484 deg
Mean anomaly:     332.8695 deg
Mean motion:   14.59836903 rev/day
Decay rate:       1.52e-06 rev/day^2
Epoch rev:           22561
Checksum:              338

Satellite: FALCON
Catalog number: 30776
Epoch time:      10020.93372334
Element set:    0749
Inclination:      035.4327 deg
RA of node:       218.1446 deg
Eccentricity:    0.0001858
Arg of perigee:   325.8691 deg
Mean anomaly:     034.1905 deg
Mean motion:   15.03428780 rev/day
Decay rate:      +3.85e-06 rev/day^2
Epoch rev:           15788
Checksum:              302

Satellite: MAST
Catalog number: 31126
Epoch time:      10020.63535031
Element set:    0783
Inclination:      097.9585 deg
RA of node:       070.1233 deg
Eccentricity:    0.0094275
Arg of perigee:   325.3212 deg
Mean anomaly:     034.1873 deg
Mean motion:   14.53547625 rev/day
Decay rate:      +1.33e-06 rev/day^2
Epoch rev:           14662
Checksum:              269

Satellite: CAPE1
Catalog number: 31130
Epoch time:      10021.78374504
Element set:     795
Inclination:      097.9597 deg
RA of node:       068.9257 deg
Eccentricity:    0.0102582
Arg of perigee:   329.0227 deg
Mean anomaly:     030.4954 deg
Mean motion:   14.52124373 rev/day
Decay rate:      -1.72e-06 rev/day^2
Epoch rev:           14641
Checksum:              291

Satellite: COMPASS
Catalog number: 32787
Epoch time:      10021.70478081
Element set:     575
Inclination:      097.9128 deg
RA of node:       088.3591 deg
Eccentricity:    0.0016602
Arg of perigee:   044.7768 deg
Mean anomaly:     315.4778 deg
Mean motion:   14.81739720 rev/day
Decay rate:       2.81e-06 rev/day^2
Epoch rev:            9380
Checksum:              321

Satellite: AAUSAT2
Catalog number: 32788
Epoch time:      10020.64114541
Element set:    0569
Inclination:      097.9123 deg
RA of node:       087.4032 deg
Eccentricity:    0.0016355
Arg of perigee:   048.3124 deg
Mean anomaly:     311.9465 deg
Mean motion:   14.81872063 rev/day
Decay rate:      +4.12e-06 rev/day^2
Epoch rev:           09365
Checksum:              286

Satellite: DO-64
Catalog number: 32789
Epoch time:      10020.72756967
Element set:     585
Inclination:      097.9204 deg
RA of node:       087.8154 deg
Eccentricity:    0.0016480
Arg of perigee:   047.3404 deg
Mean anomaly:     312.9198 deg
Mean motion:   14.81926600 rev/day
Decay rate:       1.05e-06 rev/day^2
Epoch rev:            9366
Checksum:              324

Satellite: CO-66
Catalog number: 32791
Epoch time:      10021.70657561
Element set:     565
Inclination:      097.9145 deg
RA of node:       088.3888 deg
Eccentricity:    0.0016967
Arg of perigee:   042.8715 deg
Mean anomaly:     317.3762 deg
Mean motion:   14.81548366 rev/day
Decay rate:       1.74e-06 rev/day^2
Epoch rev:            9376
Checksum:              347

Satellite: RS-30
Catalog number: 32953
Epoch time:      10021.79949354
Element set:     506
Inclination:      082.5031 deg
RA of node:       120.7126 deg
Eccentricity:    0.0019751
Arg of perigee:   063.8388 deg
Mean anomaly:     296.4721 deg
Mean motion:   12.43002993 rev/day
Decay rate:        1.0e-07 rev/day^2
Epoch rev:            7555
Checksum:              285

Satellite: TACSAT-3
Catalog number: 35001
Epoch time:      10020.48105183
Element set:     196
Inclination:      040.4565 deg
RA of node:       020.2605 deg
Eccentricity:    0.0023758
Arg of perigee:   337.0347 deg
Mean anomaly:     022.9405 deg
Mean motion:   15.40038916 rev/day
Decay rate:      3.746e-05 rev/day^2
Epoch rev:            3784
Checksum:              262

Satellite: PHARMSAT
Catalog number: 35002
Epoch time:      10020.36273880
Element set:    0196
Inclination:      040.4704 deg
RA of node:       019.5942 deg
Eccentricity:    0.0026701
Arg of perigee:   340.9460 deg
Mean anomaly:     019.0354 deg
Mean motion:   15.40720200 rev/day
Decay rate:     +3.329e-05 rev/day^2
Epoch rev:           03783
Checksum:              248

Satellite: HAWKSAT1
Catalog number: 35003
Epoch time:      10020.36322708
Element set:    0201
Inclination:      040.4626 deg
RA of node:       017.6155 deg
Eccentricity:    0.0025698
Arg of perigee:   346.7029 deg
Mean anomaly:     013.3106 deg
Mean motion:   15.42174518 rev/day
Decay rate:     +6.582e-05 rev/day^2
Epoch rev:           03786
Checksum:              264

